| time (UTC) | temp C | wind direction | speed KPH | gust KPH | rain 1hr cm | rain 24hr cm | rain mn cm | humidity % | barometer mb |
| 20260503190258 | 16 | 351 | 0.0 | 3.2 | 0.00 | 0.00 | 0.00 | 93 | 1015.0 |
| 20260503185257 | 16 | 351 | 0.0 | 3.2 | 0.00 | 0.00 | 0.00 | 93 | 1015.0 |
| 20260503184223 | 16 | 351 | 0.0 | 1.6 | 0.00 | 0.00 | 0.00 | 93 | 1015.0 |
| 20260503183221 | 16 | 351 | 0.0 | 1.6 | 0.00 | 0.00 | 0.00 | 92 | 1015.0 |
| 20260503182220 | 16 | 351 | 0.0 | 1.6 | 0.00 | 0.00 | 0.00 | 92 | 1015.0 |
| 20260503181219 | 16 | 351 | 0.0 | 1.6 | 0.00 | 0.00 | 0.00 | 91 | 1015.0 |
| 20260503180146 | 17 | 351 | 0.0 | 1.6 | 0.00 | 0.00 | 0.00 | 91 | 1015.0 |
| 20260503175114 | 17 | 351 | 0.0 | 3.2 | 0.00 | 0.00 | 0.00 | 91 | 1015.0 |
| 20260503174113 | 17 | 351 | 0.0 | 3.2 | 0.00 | 0.00 | 0.00 | 91 | 1015.0 |
| 20260503173110 | 17 | 351 | 1.6 | 3.2 | 0.00 | 0.00 | 0.00 | 91 | 1015.0 |
| 20260503172109 | 17 | 351 | 0.0 | 3.2 | 0.00 | 0.00 | 0.00 | 92 | 1015.4 |
| 20260503171036 | 17 | 351 | 0.0 | 1.6 | 0.00 | 0.00 | 0.00 | 92 | 1015.4 |
| 20260503150845 | 18 | 351 | 0.0 | 1.6 | 0.00 | 0.00 | 0.00 | 89 | 1016.4 |
| 20260503130725 | 20 | 352 | 1.6 | 6.4 | 0.00 | 0.00 | 0.00 | 84 | 1017.4 |
| 20260503110502 | 20 | 343 | 6.4 | 17.7 | 0.00 | 0.00 | 0.00 | 83 | 1017.7 |
| 20260503090310 | 21 | 348 | 8.0 | 29.0 | 0.00 | 0.00 | 0.00 | 78 | 1017.4 |
| 20260503081129 | 21 | 5 | 11.3 | 24.1 | 0.00 | 0.00 | 0.00 | 74 | 1017.0 |
| 20260503071948 | 22 | 27 | 11.3 | 22.5 | 0.00 | 0.00 | 0.00 | 72 | 1017.0 |
| 20260503070946 | 22 | 16 | 8.0 | 22.5 | 0.00 | 0.00 | 0.00 | 73 | 1017.0 |
| 20260503054934 | 23 | 5 | 11.3 | 27.4 | 0.00 | 0.00 | 0.00 | 71 | 1017.4 |
| 20260503053901 | 23 | 13 | 11.3 | 27.4 | 0.00 | 0.00 | 0.00 | 70 | 1017.4 |
| 20260503052829 | 23 | 20 | 12.9 | 27.4 | 0.00 | 0.00 | 0.00 | 70 | 1017.4 |
| 20260503051827 | 23 | 344 | 9.7 | 33.8 | 0.00 | 0.00 | 0.00 | 69 | 1017.4 |
| 20260503050723 | 23 | 37 | 9.7 | 33.8 | 0.00 | 0.00 | 0.00 | 69 | 1017.7 |
| 20260503045722 | 23 | 23 | 11.3 | 27.4 | 0.00 | 0.00 | 0.00 | 69 | 1017.7 |
| 20260503044720 | 23 | 6 | 12.9 | 25.7 | 0.00 | 0.00 | 0.00 | 68 | 1017.7 |
| 20260503043718 | 23 | 35 | 9.7 | 22.5 | 0.00 | 0.00 | 0.00 | 68 | 1017.7 |
| 20260503042715 | 23 | 42 | 6.4 | 17.7 | 0.00 | 0.00 | 0.00 | 66 | 1017.7 |
| 20260503041714 | 23 | 359 | 8.0 | 17.7 | 0.00 | 0.00 | 0.00 | 67 | 1017.7 |
| 20260503040712 | 23 | 8 | 4.8 | 19.3 | 0.00 | 0.00 | 0.00 | 66 | 1018.1 |
| 20260503035710 | 24 | 2 | 8.0 | 19.3 | 0.00 | 0.00 | 0.00 | 64 | 1018.1 |
| 20260503034709 | 24 | 13 | 6.4 | 16.1 | 0.00 | 0.00 | 0.00 | 64 | 1018.1 |
| 20260503033707 | 24 | 36 | 9.7 | 16.1 | 0.00 | 0.00 | 0.00 | 63 | 1018.1 |
| 20260503032706 | 24 | 5 | 6.4 | 16.1 | 0.00 | 0.00 | 0.00 | 61 | 1018.4 |
| 20260503031704 | 24 | 4 | 4.8 | 22.5 | 0.00 | 0.00 | 0.00 | 61 | 1018.4 |
| 20260503030702 | 25 | 9 | 4.8 | 22.5 | 0.00 | 0.00 | 0.00 | 60 | 1018.8 |
| 20260503025700 | 25 | 13 | 8.0 | 22.5 | 0.00 | 0.00 | 0.00 | 56 | 1018.8 |
| 20260503024659 | 24 | 356 | 4.8 | 22.5 | 0.00 | 0.00 | 0.00 | 58 | 1019.1 |
| 20260503023657 | 25 | 343 | 12.9 | 19.3 | 0.00 | 0.00 | 0.00 | 55 | 1019.1 |
| 20260503022655 | 24 | 0 | 6.4 | 22.5 | 0.00 | 0.00 | 0.00 | 56 | 1019.1 |
| 20260503021654 | 24 | 354 | 6.4 | 22.5 | 0.00 | 0.00 | 0.00 | 55 | 1019.4 |
| 20260503020653 | 23 | 337 | 9.7 | 29.0 | 0.00 | 0.00 | 0.00 | 55 | 1019.8 |
| 20260503015620 | 23 | 343 | 8.0 | 24.1 | 0.00 | 0.00 | 0.00 | 56 | 1019.8 |
| 20260503014619 | 23 | 345 | 8.0 | 24.1 | 0.00 | 0.00 | 0.00 | 55 | 1020.1 |
| 20260503013617 | 23 | 342 | 12.9 | 22.5 | 0.00 | 0.00 | 0.00 | 55 | 1020.1 |
| 20260503012544 | 23 | 357 | 11.3 | 22.5 | 0.00 | 0.00 | 0.00 | 55 | 1020.4 |
| 20260503011543 | 23 | 351 | 12.9 | 25.7 | 0.00 | 0.00 | 0.00 | 55 | 1020.4 |
| 20260503010541 | 23 | 350 | 9.7 | 25.7 | 0.00 | 0.00 | 0.00 | 58 | 1020.8 |
| 20260503005539 | 22 | 346 | 14.5 | 27.4 | 0.00 | 0.00 | 0.00 | 59 | 1020.8 |
| 20260503004538 | 22 | 347 | 8.0 | 27.4 | 0.00 | 0.00 | 0.00 | 61 | 1021.1 |
| 20260503003537 | 22 | 347 | 11.3 | 24.1 | 0.00 | 0.00 | 0.00 | 62 | 1021.1 |
| 20260503002536 | 22 | 355 | 6.4 | 24.1 | 0.00 | 0.00 | 0.00 | 64 | 1021.1 |
| 20260503001534 | 22 | 347 | 9.7 | 24.1 | 0.00 | 0.00 | 0.00 | 64 | 1021.5 |
| 20260503000533 | 22 | 16 | 11.3 | 24.1 | 0.00 | 0.00 | 0.00 | 65 | 1021.5 |
| 20260502235531 | 22 | 14 | 8.0 | 19.3 | 0.00 | 0.00 | 0.00 | 69 | 1021.5 |
| 20260502234529 | 21 | 356 | 4.8 | 27.4 | 0.00 | 0.00 | 0.00 | 71 | 1021.5 |
| 20260502233528 | 22 | 346 | 8.0 | 27.4 | 0.00 | 0.00 | 0.00 | 70 | 1021.5 |
| 20260502232526 | 22 | 337 | 6.4 | 16.1 | 0.00 | 0.00 | 0.00 | 71 | 1021.8 |
| 20260502231525 | 22 | 3 | 4.8 | 9.7 | 0.00 | 0.00 | 0.00 | 74 | 1021.8 |
| 20260502230523 | 21 | 344 | 3.2 | 4.8 | 0.00 | 0.00 | 0.00 | 80 | 1021.8 |
| 20260502225523 | 20 | 286 | 1.6 | 3.2 | 0.00 | 0.00 | 0.00 | 84 | 1022.1 |
| 20260502224521 | 19 | 286 | 0.0 | 3.2 | 0.00 | 0.00 | 0.00 | 87 | 1022.1 |
| 20260502223519 | 19 | 286 | 0.0 | 3.2 | 0.00 | 0.00 | 0.00 | 89 | 1022.1 |
| 20260502222518 | 18 | 286 | 0.0 | 1.6 | 0.00 | 0.00 | 0.00 | 94 | 1021.8 |
| 20260502221517 | 17 | 286 | 0.0 | 1.6 | 0.00 | 0.00 | 0.00 | 96 | 1021.8 |
| 20260502220444 | 16 | 286 | 0.0 | 1.6 | 0.00 | 0.00 | 0.00 | 96 | 1021.8 |
| 20260502215443 | 16 | 286 | 0.0 | 1.6 | 0.00 | 0.00 | 0.00 | 95 | 1021.8 |
| 20260502214441 | 16 | 286 | 0.0 | 0.0 | 0.00 | 0.00 | 0.00 | 95 | 1021.8 |
| 20260502213440 | 15 | 286 | 0.0 | 0.0 | 0.00 | 0.00 | 0.00 | 95 | 1021.4 |
| 20260502212336 | 15 | 286 | 0.0 | 3.2 | 0.00 | 0.00 | 0.00 | 95 | 1021.4 |
| 20260502211335 | 15 | 286 | 1.6 | 6.4 | 0.00 | 0.00 | 0.00 | 95 | 1021.4 |
| 20260502210336 | 15 | 286 | 1.6 | 6.4 | 0.00 | 0.00 | 0.00 | 95 | 1021.4 |
| 20260502205332 | 15 | 335 | 0.0 | 0.0 | 0.00 | 0.00 | 0.00 | 94 | 1021.1 |
| 20260502204331 | 15 | 335 | 0.0 | 0.0 | 0.00 | 0.00 | 0.00 | 94 | 1021.1 |
| 20260502203227 | 15 | 335 | 0.0 | 0.0 | 0.00 | 0.00 | 0.00 | 94 | 1021.1 |
| 20260502202155 | 15 | 335 | 0.0 | 0.0 | 0.00 | 0.00 | 0.00 | 94 | 1021.4 |
| 20260502201153 | 15 | 335 | 0.0 | 1.6 | 0.00 | 0.00 | 0.00 | 94 | 1021.4 |
| 20260502200152 | 15 | 335 | 0.0 | 1.6 | 0.00 | 0.00 | 0.00 | 94 | 1021.4 |
| 20260502195150 | 16 | 335 | 0.0 | 1.6 | 0.00 | 0.00 | 0.00 | 94 | 1021.4 |
| 20260502194149 | 16 | 335 | 0.0 | 0.0 | 0.00 | 0.00 | 0.00 | 94 | 1021.1 |
| 20260502193148 | 16 | 335 | 0.0 | 1.6 | 0.00 | 0.00 | 0.00 | 93 | 1021.1 |
| 20260502192146 | 16 | 335 | 0.0 | 3.2 | 0.00 | 0.00 | 0.00 | 93 | 1021.1 |
| 20260502191145 | 16 | 335 | 1.6 | 3.2 | 0.00 | 0.00 | 0.00 | 93 | 1021.1 |